Home   Weather   Cranbrook   Past weeks

Flag for Canada Past Weather in Cranbrook, British Columbia, Canada — Yesterday and Last 2 Weeks

Now
43 °F

Passing clouds.


Feels Like: 40 °F
Forecast: 43 / 70 °F
Wind: 5 mph from Southwest

Location: Cranbrook

Current Time: May 26, 2017 at 5:22:22 am

Latest Report: May 26, 2017 at 4:00 am


Visibility: 25 mi

Pressure: 29.96 "Hg (26.73 "Hg at 933m altitude)

Humidity: 81%

Dew Point: 37 °F

Location of CranbrookLocation

Past Weather in Cranbrook — Graph

°F

Cranbrook Temperature Yesterday

Maximum temperature yesterday: 64 °F (at 5:00 pm)
Minimum temperature yesterday: 39 °F (at 6:00 am)
Average temperature yesterday: 51 °F

High & Low Weather Summary for the Past Weeks

 TemperatureHumidityPressure
High81 °F (May 23, 5:00 pm)100% (May 12, 4:00 am)30.30 "Hg (May 12, 4:00 am)
Low30 °F (May 15, 5:00 am)19% (May 22, 5:00 pm)29.30 "Hg (May 24, 3:00 am)
Average52 °F55%29.92 "Hg
* Reported May 11 4:00 am — May 26 4:00 am, Cranbrook. Weather by CustomWeather, © 2017

Note: Actual official high and low records may vary slightly from our data, if they occured in-between our weather recording intervals... More about our weather records

Advertising

Cranbrook Weather History for the Previous 24 Hours

Scroll right to see more
 ConditionsComfort  
Time TempWeatherWind HumidityBarometerVisibility
4:00 am
Fri, May 26
43 °FPassing clouds.5 mph81%29.96 "Hg25 mi
3:00 am43 °FPassing clouds.5 mph81%29.96 "Hg25 mi
2:00 am41 °FPassing clouds.5 mph87%29.96 "Hg25 mi
1:00 am45 °FPassing clouds.3 mph87%29.93 "Hg25 mi
12:00 am46 °FPassing clouds.5 mph82%29.93 "Hg25 mi
11:00 pm
Thu, May 25
46 °FPassing clouds.7 mph82%29.92 "Hg25 mi
10:00 pm52 °FScattered showers. Broken clouds.6 mph62%29.90 "Hg25 mi
9:00 pm54 °FSprinkles. Broken clouds.6 mph54%29.90 "Hg25 mi
8:47 pm54 °FScattered showers. Broken clouds.3 mph54%29.89 "Hg25 mi
8:00 pm55 °FSprinkles. Partly sunny.10 mph51%29.87 "Hg25 mi
7:00 pm59 °FScattered showers. Broken clouds.15 mph51%29.84 "Hg25 mi
6:00 pm64 °FScattered showers. Broken clouds.17 mph34%29.80 "Hg25 mi
5:00 pm64 °FScattered showers. Broken clouds.9 mph32%29.78 "Hg25 mi
4:00 pm63 °FScattered showers. Partly sunny.10 mph34%29.79 "Hg25 mi
3:00 pm61 °FBroken clouds.9 mph29%29.80 "Hg25 mi
2:00 pm61 °FBroken clouds.3 mph34%29.80 "Hg25 mi
1:00 pm63 °FBroken clouds.9 mph34%29.80 "Hg25 mi
12:00 pm57 °FBroken clouds.2 mph48%29.82 "Hg25 mi
11:00 am54 °FBroken clouds.3 mph58%29.84 "Hg25 mi
10:00 am50 °FPartly sunny.No wind62%29.85 "Hg25 mi
9:00 am45 °FPartly sunny.No wind71%29.85 "Hg25 mi
8:00 am43 °FPartly sunny.3 mph71%29.85 "Hg25 mi
7:00 am41 °FPartly sunny.2 mph76%29.83 "Hg25 mi
6:00 am39 °FPartly cloudy.3 mph81%29.82 "Hg25 mi
5:00 am41 °FPassing clouds.2 mph76%29.81 "Hg25 mi
Weather by CustomWeather, © 2017

See weather overviewHow to use our weather pages